星链-37372(STARLINK-37372)

导读

STARLINK-37372(NORAD编号69135)是美国SpaceX公司星链(Starlink)星座中的一颗低轨互联网卫星,星链星座旨在构建覆盖全球的天基高速互联网通信系统。作为星链大规模组网计划的组成部分,该卫星运行在近地轨道,为全球用户提供低时延宽带互联网接入服务,支撑消费互联网、远程通信等多场景应用。目前该卫星已正常入轨运行,是星链已部署数千颗卫星中的一员,助力SpaceX逐步实现覆盖全球的低轨星座布局。

Basic Information
目录编号:
69135
目录名称:
STARLINK-37372
国际标识:
2026-110M
轨道中心:
EARTH
卫星名称:
星链-37372
卫星全名:
星链-37372(STARLINK-37372)
卫星状态:
在轨 (已飞行116 天)
发射日期:
2026-05-20 UTC
国别 :
美国 (US)
星等 :
--
This satellite is enrolled in the Space Conjunction Data Service (SCDS) and the current flight risk assessment level is: No High Risk
Orbit Information
数据来源 国际轨道数据 AOE轨道数据
星历时间 2026-09-13T10:39:12+0800
10小时前
查看轨道信息
2026-09-10T03:00:00+0800
3天前
查看轨道信息
半长轴 6843.663km 6843.76km
偏心率 0.0001335 0.0001656
轨道倾角 97.283° 97.286°
近地点辐角 84.715° 94.127°
升交点赤经 91.272° 88.000°
平近点角 275.425° 316.349°
近地点 464.612km 464.489km
远地点 466.44km 466.757km
周期 93.906分钟 93.908分钟
每日圈数 15.33451 15.334184
Detailed Information
固有亮度:
5
最大亮度:
2.5
卫星平台:
Starlink V1.0
覆盖范围:
全球
运营商:
太空探索技术公司
运营商所在国:
美国
制造商(研发单位):
太空探索技术公司
制造商所在国:
美国
使用方式:
暂无
Satellite Introduction
Starlink 计划是 SpaceX 推出的全球卫星互联网项目,通过发射低轨道卫星,为全球尤其是偏远地区提供高速、低延迟的互联网服务。自 2019 年起,Starlink 已部署数千颗卫星,旨在缩小全球数字鸿沟,推动互联网普及。该项目还为军事、航空等行业提供通信支持,带来广泛经济效益。
2D Orbit Map
3D Orbit Map
Orbit Altitude Analysis Chart
Orbit Inclination Analysis Chart
Orbit Comprehensive Analysis Chart
View Comprehensive Chart
Conjunction Data List
Event ID Objects TCA Miss Dist (km) Collision Risk Probability Collision Risk Index (CRI) Action
CDM_260911-174304-763006-913521
2026-09-11T
17:43:12+0000
1.697 km
极远距离
4.523504E-6 低风险 0.48
CDM_260913-212506-077606-913523
2026-09-13T
21:25:05+0000
1.784 km
极远距离
3.990728E-6 低风险 0.47
CDM_260914-001406-123006-913521
OBJECT D (61230)
2026-09-14T
00:14:16+0000
1.868 km
极远距离
3.137094E-6 低风险 0.45
CDM_260911-122304-649506-913525
SALSAT (46495)
2026-09-11T
12:23:11+0000
2.033 km
极远距离
2.778389E-6 低风险 0.44
CDM_260915-144806-026306-913521
2026-09-15T
14:48:00+0000
2.835 km
极远距离
1.421345E-6 低风险 0.38
CDM_260911-032705-405306-913521
2026-09-11T
03:27:14+0000
2.826 km
极远距离
1.372886E-6 低风险 0.38
CDM_260914-153905-317406-913521
2026-09-14T
15:39:45+0000
2.660 km
极远距离
1.185345E-6 低风险 0.36
CDM_260913-204706-370206-913522
2026-09-13T
20:47:13+0000
2.598 km
极远距离
1.028909E-6 低风险 0.35
Miss Distance Evolution Trend with All Objects
Collision Probability Evolution Trend with All Objects